Overview Statistics Trail Chart Weather Telemetry Raw packets
 

This is the latest recevied weather packets stored in our database for station/object EA2RCU-15. If no packets are shown the sender has not sent any weather packets the latest 10 day(s).

<< 102 103 104 105 106 107 108 >>
Time Temp. Humidity Pressure Rain* Wind** Luminosity Snow
1787856011 23.33° C 26% 996 hPa 0 mm - - -
1787855704 23.33° C 26% 996 hPa 0 mm - - -
1787855404 23.33° C 26% 996 hPa 0 mm - - -
1787855104 23.89° C 25% 995 hPa 0 mm - - -
1787854805 23.89° C 24% 995 hPa 0 mm - - -
1787854504 24.44° C 23% 995 hPa 0 mm - - -
1787854204 24.44° C 22% 996 hPa 0 mm - - -
1787853904 25° C 21% 996 hPa 0 mm - - -
1787853604 25.56° C 20% 996 hPa 0 mm - - -
1787853304 26.67° C 20% 995 hPa 0 mm - - -
1787853004 33.89° C 11% 995 hPa 0 mm - - -
1787852704 36.67° C 12% 995 hPa 0 mm - - -
1787852404 36.11° C 11% 995 hPa 0 mm - - -
1787852104 36.11° C 15% 995 hPa 0 mm - - -
1787851804 35° C 14% 995 hPa 0 mm - - -
1787851504 33.89° C 14% 995 hPa 0 mm - - -
1787851204 33.89° C 17% 995 hPa 0 mm - - -
1787850904 29.44° C 20% 995 hPa 0 mm - - -
1787850604 24.44° C 26% 996 hPa 0 mm - - -
1787850304 23.89° C 27% 996 hPa 0 mm - - -
1787850004 23.89° C 27% 996 hPa 0 mm - - -
1787849704 23.89° C 27% 996 hPa 0 mm - - -
1787849404 24.44° C 26% 996 hPa 0 mm - - -
1787849104 24.44° C 25% 996 hPa 0 mm - - -
1787848805 24.44° C 25% 996 hPa 0 mm - - -

* Rain latest hour (hover to see other rain measurements)
** Current wind speed in m/s (hover to see current wind gust speed)